Regional Weather Roundup
Issued by NWS

Home | Current Version | Previous Version | Graphics & Text | Print | Product List | Glossary On
Versions: 1 2 3 4 5 6 7 8 9 10 11 12 13 14 15 16 17 18 19 20 21 22 23 24 25 26 27 28 29 30 31 32 33 34 35 36 37 38 39 40 41 42 43 44 45 46 47 48 49 50
000
ASUS43 KLMK 280802
RWRKY
KENTUCKY REGIONAL WEATHER ROUNDUP
NATIONAL WEATHER SERVICE LOUISVILLE KY
400 AM EDT FRI APR 28 2017

NOTE "FAIR" INDICATES FEW OR NO CLOUDS BELOW 12,000 FEET
WITH NO SIGNIFICANT WEATHER AND/OR OBSTRUCTIONS TO VISIBILITY.

KYZ001>023-026-027-061>063-070>075-280900-
WESTERN AND SOUTH CENTRAL KENTUCKY

CITY           SKY/WX    TMP DP  RH WIND       PRES   REMARKS
PADUCAH        PTCLDY    54  51  90 SE3       29.86S
HENDERSON      MOCLDY    51  48  89 E5        29.88F
OWENSBORO      NOT AVBL
HOPKINSVILLE   CLOUDY    54  51  89 E7        29.88R
BOWLING GREEN  CLEAR     51  50  96 CALM      29.92S
GLASGOW        NOT AVBL
$$

KYZ024-025-028>034-038-045-046-053-280900-
NORTH CENTRAL KENTUCKY

CITY           SKY/WX    TMP DP  RH WIND       PRES   REMARKS
LOUISVILLE/SDF PTCLDY    52  48  86 E3        29.93F
LOUISVILLE/LOU PTCLDY    51  50  96 CALM      29.94F
FORT KNOX      CLEAR     47  47  99 CALM      29.92R
$$

KYZ035>037-039>044-047>052-055>060-089>105-280900-
NORTHEAST KENTUCKY

CITY           SKY/WX    TMP DP  RH WIND       PRES   REMARKS
LEXINGTON      CLOUDY    48  45  89 E6        29.95F
COVINGTON      MOCLDY    45  44  97 S3        29.96R FOG
FRANKFORT      CLOUDY    47  43  86 E5        29.93F
$$

KYZ054-064>069-076>088-106>120-280900-
SOUTHEAST KENTUCKY

CITY           SKY/WX    TMP DP  RH WIND       PRES   REMARKS
JACKSON        CLOUDY    55  49  80 CALM      29.96R
LONDON         PTCLDY    52  49  89 CALM      29.95S
SOMERSET       NOT AVBL
MIDDLESBORO    CLEAR     50  50 100 CALM      29.97R
MONTICELLO     CLOUDY    50  49  96 W8        29.95F
$$





USA.gov is the U.S. government's official web portal to all federal, state and local government web resources and services.